Red Bluff, CA

5:30 PM PST on December 06, 2019 (GMT -0800)
Red Bluff Municipal

Weather History for KRBL - October, 2019

Change the Weather History Date:

Tuesday, October 22, 2019

  Actual Average Record
Temperature  
Mean Temperature 72 °F -  
Max Temperature 90 °F 75 °F 92 °F (1988)
Min Temperature 55 °F 50 °F 39 °F (1949)
Cooling Degree Days 6    
Growing Degree Days 22 (Base 50)    
Moisture  
Dew Point 43 °F    
Average Humidity 36    
Maximum Humidity 62    
Minimum Humidity 14    
Precipitation  
Precipitation 0.00 in - - ()
Sea Level Pressure  
Sea Level Pressure 30.15 in    
Wind  
Wind Speed 9 mph (North)    
Max Wind Speed 18 mph    
Max Gust Speed 24 mph    
Visibility 10 miles    
Events Rain    
Averages and records for this station are not official NWS values.
T = Trace of Precipitation, MM = Missing Value Source: NWS Daily Summary

Daily Weather History Graph

Daily Weather History Graph

Search for Another Location

Airport or City:

Astronomy

Oct. 22, 2019 Rise Set
Actual Time 7:27 AM PDT 6:19 PM PDT
Civil Twilight 6:59 AM PDT 6:46 PM PDT
Nautical Twilight 6:27 AM PDT 7:18 PM PDT
Astronomical Twilight 5:56 AM PDT 7:49 PM PDT
Moon 12:42 AM PDT (10/22) 3:33 PM PDT (10/22)
Length of Visible Light 11h 47m
Length of Day
10h 52m
Last Quarter, 36% of the Moon is Illuminated
Oct 22
Last Quarter
Oct 27
New
Nov 4
First Quarter
Nov 12
Full
Nov 19
Last Quarter

Hourly Weather History & Observations

Time (PDT) Temp. Dew Point Humidity Pressure Visibility Wind Dir Wind Speed Gust Speed Precip Events Conditions
12:54 AM 63.0 °F 42.1 °F 46% 30.21 in 10.0 mi NE 3.5 mph - 0.00 in   Clear
1:54 AM 59.0 °F 42.1 °F 53% 30.21 in 10.0 mi NNW 9.2 mph - N/A   Clear
2:54 AM 60.1 °F 43.0 °F 53% 30.21 in 10.0 mi NNW 6.9 mph - N/A   Clear
3:54 AM 62.1 °F 43.0 °F 50% 30.19 in 10.0 mi NNW 10.4 mph - N/A   Clear
4:54 AM 55.9 °F 43.0 °F 62% 30.19 in 10.0 mi NNE 5.8 mph - N/A   Clear
5:54 AM 57.0 °F 43.0 °F 59% 30.20 in 10.0 mi NNW 5.8 mph - N/A   Clear
6:54 AM 57.0 °F 43.0 °F 59% 30.20 in 10.0 mi NNE 3.5 mph - N/A   Clear
7:54 AM 59.0 °F 43.0 °F 55% 30.21 in 10.0 mi NNE 3.5 mph - N/A   Clear
8:54 AM 64.0 °F 43.0 °F 46% 30.22 in 10.0 mi North 4.6 mph - N/A   Clear
9:54 AM 69.1 °F 43.0 °F 39% 30.23 in 10.0 mi NNE 5.8 mph - N/A   Clear
10:54 AM 78.1 °F 41.0 °F 27% 30.22 in 10.0 mi North 15.0 mph - N/A   Clear
11:54 AM 81.0 °F 39.9 °F 23% 30.21 in 10.0 mi North 13.8 mph - N/A   Clear
12:54 PM 84.9 °F 39.0 °F 20% 30.18 in 10.0 mi North 12.7 mph - N/A   Clear
1:54 PM 89.1 °F 39.0 °F 17% 30.14 in 10.0 mi North 16.1 mph - 0.00 in Rain Light Rain
2:54 PM 90.0 °F 35.1 °F 14% 30.11 in 10.0 mi North 18.4 mph - 0.00 in Rain Light Rain
3:54 PM 90.0 °F 37.9 °F 16% 30.09 in 10.0 mi North 13.8 mph - 0.00 in Rain Light Rain
4:54 PM 88.0 °F 39.0 °F 18% 30.08 in 10.0 mi North 16.1 mph 24.2 mph 0.00 in   Clear
5:54 PM 84.9 °F 41.0 °F 21% 30.08 in 10.0 mi North 13.8 mph - N/A   Clear
6:54 PM 82.0 °F 43.0 °F 25% 30.08 in 10.0 mi NNW 15.0 mph 21.9 mph N/A   Clear
7:54 PM 80.1 °F 44.1 °F 28% 30.08 in 10.0 mi NNW 13.8 mph - N/A   Clear
8:54 PM 78.1 °F 46.9 °F 33% 30.08 in 10.0 mi NNW 15.0 mph 23.0 mph N/A   Clear
9:54 PM 77.0 °F 48.0 °F 36% 30.08 in 10.0 mi NNW 13.8 mph - N/A   Clear
10:54 PM 77.0 °F 48.0 °F 36% 30.09 in 10.0 mi NNW 18.4 mph - N/A   Clear
11:54 PM 73.9 °F 46.9 °F 38% 30.09 in 10.0 mi NNW 9.2 mph - N/A   Clear